| time (UTC) | temp F | wind direction | speed MPH | gust MPH | rain 1hr in | rain 24hr in | rain mn in | humidity % | barometer mb |
| 20260505114056 | 48 | 349 | 0.0 | 2.0 | 0.00 | 1.08 | 1.08 | 89 | 1010.8 |
| 20260505113553 | 48 | 344 | 2.0 | 3.0 | 0.07 | 1.08 | 1.08 | 90 | 1010.4 |
| 20260505113050 | 48 | 7 | 0.0 | 1.0 | 0.07 | 1.08 | 1.08 | 90 | 1010.6 |
| 20260505112546 | 48 | 350 | 0.0 | 3.0 | 0.00 | 1.07 | 1.07 | 90 | 1010.9 |
| 20260505112045 | 48 | 357 | 0.0 | 0.0 | 0.00 | 1.07 | 1.07 | 91 | 1011.0 |
| 20260505111543 | 48 | 332 | 0.0 | 2.0 | 0.00 | 1.07 | 1.07 | 90 | 1010.5 |
| 20260505111040 | 48 | 352 | 0.0 | 4.0 | 0.00 | 1.07 | 1.07 | 89 | 1010.5 |
| 20260505110537 | 48 | 339 | 0.0 | 1.0 | 0.00 | 1.07 | 1.07 | 88 | 1010.5 |
| 20260505102009 | 49 | 348 | 1.0 | 3.0 | 0.00 | 1.06 | 1.06 | 86 | 1010.6 |
| 20260505101507 | 49 | 343 | 1.0 | 2.0 | 0.00 | 1.06 | 1.06 | 86 | 1010.5 |
| 20260505101003 | 49 | 348 | 2.0 | 3.0 | 0.00 | 1.06 | 1.06 | 85 | 1010.2 |
| 20260505100501 | 49 | 325 | 1.0 | 3.0 | 0.00 | 1.06 | 1.06 | 84 | 1010.2 |
| 20260505095957 | 49 | 23 | 1.0 | 2.0 | 0.00 | 1.06 | 1.06 | 85 | 1010.5 |
| 20260505095453 | 49 | 349 | 0.0 | 2.0 | 0.00 | 1.06 | 1.06 | 84 | 1010.3 |
| 20260505094949 | 49 | 344 | 2.0 | 2.0 | 0.00 | 1.06 | 1.06 | 84 | 1010.4 |
| 20260505094446 | 49 | 341 | 2.0 | 3.0 | 0.00 | 1.06 | 1.06 | 85 | 1010.1 |
| 20260505093943 | 49 | 351 | 2.0 | 3.0 | 0.00 | 1.06 | 1.06 | 85 | 1010.1 |
| 20260505093439 | 49 | 16 | 2.0 | 3.0 | 0.00 | 1.06 | 1.06 | 85 | 1010.4 |
| 20260505092937 | 48 | 2 | 3.0 | 4.0 | 0.00 | 1.06 | 1.06 | 86 | 1010.1 |
| 20260505092434 | 48 | 5 | 1.0 | 3.0 | 0.00 | 1.06 | 1.06 | 86 | 1009.9 |
| 20260505091932 | 48 | 87 | 1.0 | 6.0 | 0.00 | 1.06 | 1.06 | 86 | 1009.9 |
| 20260505091429 | 48 | 358 | 4.0 | 6.0 | 0.00 | 1.06 | 1.06 | 87 | 1009.4 |
| 20260505090927 | 48 | 14 | 5.0 | 7.0 | 0.00 | 1.06 | 1.06 | 88 | 1009.4 |
| 20260505090425 | 48 | 351 | 2.0 | 10.0 | 0.00 | 1.06 | 1.06 | 90 | 1009.5 |
| 20260505085922 | 48 | 299 | 4.0 | 7.0 | 0.00 | 1.06 | 1.06 | 90 | 1009.4 |
| 20260505085420 | 48 | 5 | 1.0 | 2.0 | 0.00 | 1.06 | 1.06 | 91 | 1009.4 |
| 20260505084918 | 48 | 1 | 1.0 | 2.0 | 0.00 | 1.06 | 1.06 | 91 | 1009.1 |
| 20260505084416 | 48 | 165 | 2.0 | 6.0 | 0.00 | 1.06 | 1.06 | 91 | 1008.7 |
| 20260505083914 | 48 | 67 | 1.0 | 7.0 | 0.00 | 1.06 | 1.06 | 92 | 1008.3 |
| 20260505083411 | 48 | 1 | 1.0 | 3.0 | 0.00 | 1.06 | 1.06 | 92 | 1008.0 |
| 20260505082907 | 48 | 317 | 2.0 | 4.0 | 0.00 | 1.06 | 1.06 | 92 | 1008.2 |
| 20260505082403 | 48 | 189 | 2.0 | 3.0 | 0.00 | 1.06 | 1.06 | 93 | 1007.4 |
| 20260505081900 | 48 | 347 | 4.0 | 9.0 | 0.07 | 1.06 | 1.06 | 93 | 1007.0 |
| 20260505081356 | 48 | 303 | 3.0 | 7.0 | 0.19 | 1.06 | 1.06 | 93 | 1006.8 |
| 20260505080853 | 49 | 303 | 5.0 | 9.0 | 0.31 | 1.05 | 1.05 | 94 | 1006.6 |
| 20260505080349 | 49 | 1 | 1.0 | 2.0 | 0.42 | 1.03 | 1.03 | 94 | 1007.8 |
| 20260505075845 | 50 | 354 | 2.0 | 2.0 | 0.31 | 0.99 | 0.99 | 93 | 1009.5 |
| 20260505075342 | 50 | 348 | 0.0 | 2.0 | 0.19 | 0.95 | 0.95 | 93 | 1009.7 |
| 20260505074839 | 50 | 354 | 0.0 | 1.0 | 0.19 | 0.93 | 0.93 | 93 | 1010.5 |
| 20260505074336 | 50 | 352 | 2.0 | 2.0 | 0.24 | 0.92 | 0.92 | 93 | 1010.5 |
| 20260505073833 | 50 | 359 | 0.0 | 2.0 | 0.24 | 0.90 | 0.90 | 92 | 1011.1 |
| 20260505073331 | 50 | 353 | 0.0 | 2.0 | 0.24 | 0.88 | 0.88 | 91 | 1010.8 |
| 20260505072828 | 51 | 344 | 0.0 | 1.0 | 0.24 | 0.86 | 0.86 | 93 | 1010.8 |
| 20260505072324 | 51 | 60 | 2.0 | 2.0 | 0.19 | 0.84 | 0.84 | 93 | 1010.6 |
| 20260505071820 | 52 | 352 | 0.0 | 1.0 | 0.14 | 0.82 | 0.82 | 93 | 1010.9 |
| 20260505071317 | 52 | 353 | 0.0 | 0.0 | 0.07 | 0.81 | 0.81 | 92 | 1010.4 |
| 20260505070815 | 52 | 354 | 1.0 | 4.0 | 0.05 | 0.80 | 0.80 | 90 | 1009.6 |
| 20260505070311 | 53 | 349 | 0.0 | 2.0 | 0.05 | 0.80 | 0.80 | 91 | 1009.3 |
| 20260505065806 | 53 | 329 | 2.0 | 3.0 | 0.07 | 0.79 | 0.79 | 91 | 1008.9 |
| 20260505065304 | 53 | 10 | 1.0 | 2.0 | 0.07 | 0.79 | 0.79 | 93 | 1008.7 |
| 20260505064800 | 54 | 297 | 1.0 | 3.0 | 0.05 | 0.78 | 0.78 | 95 | 1008.8 |
| 20260505064258 | 54 | 359 | 0.0 | 0.0 | 0.12 | 0.78 | 0.78 | 94 | 1008.9 |
| 20260505063755 | 54 | 350 | 0.0 | 0.0 | 0.24 | 0.77 | 0.77 | 94 | 1008.9 |
| 20260505063252 | 54 | 324 | 0.0 | 1.0 | 0.24 | 0.76 | 0.76 | 93 | 1008.8 |
| 20260505062748 | 54 | 344 | 1.0 | 2.0 | 0.38 | 0.73 | 0.73 | 93 | 1008.6 |
| 20260505062246 | 54 | 346 | 0.0 | 1.0 | 0.85 | 0.71 | 0.71 | 94 | 1007.7 |
| 20260505061742 | 54 | 357 | 1.0 | 3.0 | 0.83 | 0.65 | 0.65 | 92 | 1008.2 |
| 20260505061240 | 55 | 331 | 2.0 | 4.0 | 1.28 | 0.56 | 0.56 | 91 | 1008.0 |
| 20260505060738 | 55 | 354 | 1.0 | 2.0 | 1.68 | 0.50 | 0.50 | 91 | 1007.9 |
| 20260505060235 | 56 | 341 | 1.0 | 7.0 | 0.92 | 0.32 | 0.32 | 89 | 1007.6 |
| 20260505055729 | 57 | 298 | 1.0 | 7.0 | 0.66 | 0.21 | 0.21 | 86 | 1007.3 |
| 20260505055226 | 58 | 61 | 2.0 | 3.0 | 0.94 | 0.17 | 0.17 | 82 | 1007.1 |
| 20260505054724 | 61 | 327 | 1.0 | 2.0 | 0.38 | 0.06 | 0.06 | 75 | 1006.8 |
| 20260505054222 | 63 | 358 | 1.0 | 2.0 | 0.07 | 0.01 | 0.01 | 69 | 1006.5 |
| 20260505053720 | 65 | 298 | 1.0 | 8.0 | 0.00 | 0.00 | 0.00 | 62 | 1006.4 |
| 20260505053215 | 68 | 343 | 2.0 | 13.0 | 0.00 | 0.00 | 0.00 | 53 | 1006.5 |
| 20260505052713 | 69 | 48 | 3.0 | 4.0 | 0.00 | 0.00 | 0.00 | 52 | 1006.4 |
| 20260505052209 | 70 | 255 | 3.0 | 7.0 | 0.00 | 0.00 | 0.00 | 52 | 1006.2 |
| 20260505051707 | 70 | 248 | 1.0 | 8.0 | 0.00 | 0.00 | 0.00 | 64 | 1006.1 |
| 20260505051205 | 70 | 40 | 2.0 | 6.0 | 0.00 | 0.00 | 0.00 | 67 | 1006.1 |
| 20260505050703 | 69 | 32 | 2.0 | 4.0 | 0.00 | 0.00 | 0.00 | 71 | 1005.8 |
| 20260505050201 | 69 | 332 | 1.0 | 3.0 | 0.00 | 0.00 | 0.00 | 73 | 1005.6 |
| 20260505041630 | 70 | 255 | 1.0 | 3.0 | 0.00 | 0.00 | 0.00 | 72 | 1005.1 |
| 20260505041128 | 70 | 322 | 2.0 | 3.0 | 0.00 | 0.00 | 0.00 | 72 | 1005.3 |
| 20260505040624 | 70 | 295 | 3.0 | 4.0 | 0.00 | 0.00 | 0.00 | 72 | 1005.4 |
| 20260505040122 | 70 | 340 | 1.0 | 2.0 | 0.00 | 0.00 | 0.00 | 73 | 1005.4 |
| 20260505035618 | 71 | 305 | 1.0 | 3.0 | 0.00 | 0.00 | 0.00 | 73 | 1005.5 |
| 20260505035114 | 70 | 282 | 3.0 | 6.0 | 0.00 | 0.00 | 0.00 | 73 | 1005.4 |
| 20260505034611 | 70 | 319 | 1.0 | 3.0 | 0.00 | 0.00 | 0.00 | 73 | 1005.4 |
| 20260505034108 | 70 | 340 | 1.0 | 2.0 | 0.00 | 0.00 | 0.00 | 73 | 1005.4 |
| 20260505033605 | 70 | 356 | 1.0 | 3.0 | 0.00 | 0.00 | 0.00 | 73 | 1005.3 |
| 20260505033104 | 71 | 320 | 0.0 | 3.0 | 0.00 | 0.00 | 0.00 | 73 | 1005.6 |
| 20260505032601 | 71 | 315 | 0.0 | 1.0 | 0.00 | 0.00 | 0.00 | 72 | 1005.5 |
| 20260505032057 | 71 | 298 | 2.0 | 2.0 | 0.00 | 0.00 | 0.00 | 72 | 1005.4 |
| 20260505031555 | 71 | 350 | 0.0 | 2.0 | 0.00 | 0.00 | 0.00 | 72 | 1005.3 |
| 20260505031051 | 71 | 269 | 2.0 | 3.0 | 0.00 | 0.00 | 0.00 | 72 | 1005.2 |
| 20260505030548 | 71 | 345 | 0.0 | 1.0 | 0.00 | 0.00 | 0.00 | 72 | 1005.2 |
| 20260505030043 | 71 | 353 | 0.0 | 0.0 | 0.00 | 0.00 | 0.00 | 71 | 1005.2 |
| 20260505025539 | 71 | 345 | 1.0 | 2.0 | 0.00 | 0.00 | 0.00 | 70 | 1005.1 |
| 20260505025038 | 72 | 349 | 0.0 | 0.0 | 0.00 | 0.00 | 0.00 | 69 | 1005.1 |
| 20260505024535 | 71 | 348 | 0.0 | 1.0 | 0.00 | 0.00 | 0.00 | 69 | 1005.0 |
| 20260505024032 | 70 | 282 | 2.0 | 3.0 | 0.00 | 0.00 | 0.00 | 71 | 1004.9 |
| 20260505023529 | 69 | 343 | 0.0 | 0.0 | 0.00 | 0.00 | 0.00 | 73 | 1004.9 |
| 20260505023027 | 69 | 345 | 0.0 | 0.0 | 0.00 | 0.00 | 0.00 | 74 | 1004.7 |
| 20260505022524 | 70 | 352 | 0.0 | 0.0 | 0.00 | 0.00 | 0.00 | 73 | 1004.7 |
| 20260505022021 | 70 | 352 | 0.0 | 0.0 | 0.00 | 0.00 | 0.00 | 72 | 1004.6 |
| 20260505021518 | 70 | 355 | 0.0 | 1.0 | 0.00 | 0.00 | 0.00 | 71 | 1004.5 |
| 20260505021015 | 70 | 349 | 0.0 | 0.0 | 0.00 | 0.00 | 0.00 | 72 | 1004.5 |
| 20260505020514 | 70 | 351 | 0.0 | 0.0 | 0.00 | 0.00 | 0.00 | 71 | 1004.6 |
| 20260505020012 | 70 | 352 | 0.0 | 0.0 | 0.00 | 0.00 | 0.00 | 71 | 1004.4 |
| 20260505015509 | 70 | 350 | 0.0 | 0.0 | 0.00 | 0.00 | 0.00 | 71 | 1004.3 |
| 20260505015006 | 70 | 350 | 0.0 | 0.0 | 0.00 | 0.00 | 0.00 | 70 | 1004.2 |
| 20260505014503 | 71 | 350 | 0.0 | 0.0 | 0.00 | 0.00 | 0.00 | 69 | 1004.2 |
| 20260505014000 | 71 | 350 | 0.0 | 0.0 | 0.00 | 0.00 | 0.00 | 68 | 1004.0 |
| 20260505013457 | 71 | 349 | 0.0 | 0.0 | 0.00 | 0.00 | 0.00 | 67 | 1003.9 |
| 20260505012954 | 71 | 353 | 0.0 | 0.0 | 0.00 | 0.00 | 0.00 | 66 | 1003.8 |
| 20260505012452 | 71 | 352 | 0.0 | 0.0 | 0.00 | 0.00 | 0.00 | 66 | 1003.9 |
| 20260505011949 | 72 | 351 | 0.0 | 0.0 | 0.00 | 0.00 | 0.00 | 66 | 1003.9 |
| 20260505011444 | 72 | 352 | 0.0 | 1.0 | 0.00 | 0.00 | 0.00 | 65 | 1003.7 |
| 20260505010942 | 73 | 357 | 0.0 | 0.0 | 0.00 | 0.00 | 0.00 | 64 | 1003.7 |
| 20260505010437 | 73 | 351 | 0.0 | 0.0 | 0.00 | 0.00 | 0.00 | 62 | 1003.6 |
| 20260505005933 | 74 | 351 | 0.0 | 0.0 | 0.00 | 0.00 | 0.00 | 60 | 1003.7 |
| 20260505005430 | 75 | 352 | 0.0 | 0.0 | 0.00 | 0.00 | 0.00 | 59 | 1003.5 |
| 20260505004928 | 75 | 352 | 0.0 | 0.0 | 0.00 | 0.00 | 0.00 | 58 | 1003.6 |
| 20260505004424 | 76 | 351 | 0.0 | 0.0 | 0.00 | 0.00 | 0.00 | 57 | 1003.3 |
| 20260505003921 | 77 | 352 | 0.0 | 0.0 | 0.00 | 0.00 | 0.00 | 57 | 1003.3 |
| 20260505003419 | 77 | 348 | 0.0 | 0.0 | 0.00 | 0.00 | 0.00 | 56 | 1003.4 |
| 20260505002915 | 78 | 351 | 0.0 | 0.0 | 0.00 | 0.00 | 0.00 | 55 | 1003.3 |
| 20260505002411 | 78 | 351 | 0.0 | 0.0 | 0.00 | 0.00 | 0.00 | 55 | 1003.1 |
| 20260505001910 | 78 | 349 | 0.0 | 0.0 | 0.00 | 0.00 | 0.00 | 55 | 1003.2 |
| 20260505001407 | 78 | 344 | 0.0 | 0.0 | 0.00 | 0.00 | 0.00 | 54 | 1003.2 |
| 20260505000904 | 78 | 336 | 0.0 | 1.0 | 0.00 | 0.00 | 0.00 | 52 | 1003.2 |
| 20260505000402 | 78 | 347 | 0.0 | 0.0 | 0.00 | 0.00 | 0.00 | 54 | 1003.3 |
| 20260504235858 | 79 | 351 | 0.0 | 0.0 | 0.00 | 0.00 | 0.00 | 54 | 1003.5 |
| 20260504235355 | 79 | 337 | 0.0 | 1.0 | 0.00 | 0.00 | 0.00 | 51 | 1003.3 |
| 20260504234851 | 79 | 351 | 0.0 | 1.0 | 0.00 | 0.00 | 0.00 | 52 | 1003.3 |
| 20260504234349 | 79 | 308 | 0.0 | 1.0 | 0.00 | 0.00 | 0.00 | 53 | 1003.4 |
| 20260504233846 | 79 | 349 | 0.0 | 2.0 | 0.00 | 0.00 | 0.00 | 50 | 1003.2 |
| 20260504233341 | 79 | 338 | 0.0 | 0.0 | 0.00 | 0.00 | 0.00 | 51 | 1003.3 |
| 20260504232838 | 80 | 20 | 1.0 | 2.0 | 0.00 | 0.00 | 0.00 | 50 | 1003.4 |
| 20260504232336 | 79 | 351 | 0.0 | 3.0 | 0.00 | 0.00 | 0.00 | 52 | 1003.4 |
| 20260504231832 | 80 | 196 | 3.0 | 6.0 | 0.00 | 0.00 | 0.00 | 50 | 1003.5 |
| 20260504231329 | 80 | 21 | 0.0 | 1.0 | 0.00 | 0.00 | 0.00 | 52 | 1003.5 |
| 20260504230825 | 80 | 37 | 1.0 | 1.0 | 0.00 | 0.00 | 0.00 | 52 | 1003.4 |
| 20260504230323 | 80 | 349 | 1.0 | 6.0 | 0.00 | 0.00 | 0.00 | 49 | 1003.4 |
| 20260504225821 | 81 | 18 | 1.0 | 6.0 | 0.00 | 0.00 | 0.00 | 49 | 1003.4 |
| 20260504225317 | 81 | 258 | 2.0 | 6.0 | 0.00 | 0.00 | 0.00 | 47 | 1003.3 |
| 20260504224815 | 82 | 128 | 2.0 | 4.0 | 0.00 | 0.00 | 0.00 | 46 | 1003.5 |
| 20260504224312 | 82 | 330 | 1.0 | 1.0 | 0.00 | 0.00 | 0.00 | 50 | 1003.4 |
| 20260504223808 | 81 | 332 | 1.0 | 3.0 | 0.00 | 0.00 | 0.00 | 48 | 1003.4 |
| 20260504223304 | 82 | 247 | 2.0 | 7.0 | 0.00 | 0.00 | 0.00 | 46 | 1003.5 |
| 20260504222801 | 82 | 14 | 1.0 | 2.0 | 0.00 | 0.00 | 0.00 | 50 | 1003.4 |
| 20260504222258 | 82 | 297 | 1.0 | 2.0 | 0.00 | 0.00 | 0.00 | 51 | 1003.3 |
| 20260504221755 | 82 | 305 | 2.0 | 6.0 | 0.00 | 0.00 | 0.00 | 48 | 1003.4 |
| 20260504221252 | 82 | 279 | 1.0 | 4.0 | 0.00 | 0.00 | 0.00 | 47 | 1003.5 |
| 20260504220749 | 82 | 318 | 1.0 | 2.0 | 0.00 | 0.00 | 0.00 | 51 | 1003.5 |
| 20260504220246 | 82 | 106 | 2.0 | 3.0 | 0.00 | 0.00 | 0.00 | 46 | 1003.6 |
| 20260504215743 | 82 | 13 | 0.0 | 1.0 | 0.00 | 0.00 | 0.00 | 51 | 1003.6 |
| 20260504215240 | 81 | 322 | 1.0 | 3.0 | 0.00 | 0.00 | 0.00 | 49 | 1003.7 |
| 20260504214736 | 81 | 292 | 2.0 | 4.0 | 0.00 | 0.00 | 0.00 | 50 | 1003.8 |
| 20260504214232 | 81 | 312 | 2.0 | 3.0 | 0.00 | 0.00 | 0.00 | 49 | 1003.8 |
| 20260504213729 | 81 | 310 | 3.0 | 6.0 | 0.00 | 0.00 | 0.00 | 48 | 1003.8 |
| 20260504213225 | 80 | 354 | 2.0 | 3.0 | 0.00 | 0.00 | 0.00 | 51 | 1003.7 |
| 20260504212722 | 81 | 198 | 2.0 | 8.0 | 0.00 | 0.00 | 0.00 | 48 | 1004.0 |
| 20260504212219 | 81 | 271 | 2.0 | 2.0 | 0.00 | 0.00 | 0.00 | 49 | 1003.8 |
| 20260504211717 | 82 | 291 | 3.0 | 4.0 | 0.00 | 0.00 | 0.00 | 47 | 1004.0 |
| 20260504211213 | 81 | 239 | 3.0 | 3.0 | 0.00 | 0.00 | 0.00 | 47 | 1004.0 |
| 20260504210710 | 81 | 353 | 2.0 | 6.0 | 0.00 | 0.00 | 0.00 | 46 | 1004.1 |
| 20260504210207 | 80 | 339 | 0.0 | 3.0 | 0.00 | 0.00 | 0.00 | 54 | 1004.0 |
| 20260504205704 | 80 | 299 | 2.0 | 4.0 | 0.00 | 0.00 | 0.00 | 48 | 1004.1 |
| 20260504205201 | 80 | 308 | 2.0 | 6.0 | 0.00 | 0.00 | 0.00 | 47 | 1004.3 |
| 20260504204700 | 81 | 318 | 2.0 | 4.0 | 0.00 | 0.00 | 0.00 | 46 | 1004.2 |
| 20260504204159 | 82 | 256 | 3.0 | 9.0 | 0.00 | 0.00 | 0.00 | 45 | 1004.2 |
| 20260504203657 | 82 | 78 | 2.0 | 7.0 | 0.00 | 0.00 | 0.00 | 49 | 1004.4 |
| 20260504203155 | 82 | 283 | 2.0 | 4.0 | 0.00 | 0.00 | 0.00 | 46 | 1004.4 |
| 20260504202654 | 82 | 320 | 4.0 | 7.0 | 0.00 | 0.00 | 0.00 | 44 | 1004.3 |
| 20260504202152 | 82 | 249 | 3.0 | 4.0 | 0.00 | 0.00 | 0.00 | 45 | 1004.2 |
| 20260504201648 | 81 | 348 | 0.0 | 6.0 | 0.00 | 0.00 | 0.00 | 55 | 1004.3 |
| 20260504201146 | 82 | 348 | 2.0 | 6.0 | 0.00 | 0.00 | 0.00 | 46 | 1004.2 |
| 20260504200643 | 83 | 284 | 2.0 | 6.0 | 0.00 | 0.00 | 0.00 | 48 | 1004.2 |
| 20260504200139 | 83 | 278 | 1.0 | 3.0 | 0.00 | 0.00 | 0.00 | 47 | 1004.5 |
| 20260504195635 | 83 | 268 | 2.0 | 4.0 | 0.00 | 0.00 | 0.00 | 45 | 1004.5 |
| 20260504195132 | 82 | 342 | 2.0 | 6.0 | 0.00 | 0.00 | 0.00 | 49 | 1004.5 |
| 20260504194629 | 83 | 271 | 4.0 | 6.0 | 0.00 | 0.00 | 0.00 | 46 | 1004.3 |
| 20260504194125 | 82 | 288 | 2.0 | 4.0 | 0.00 | 0.00 | 0.00 | 47 | 1004.3 |
| 20260504193621 | 81 | 268 | 1.0 | 7.0 | 0.00 | 0.00 | 0.00 | 48 | 1004.4 |
| 20260504193119 | 81 | 221 | 3.0 | 8.0 | 0.00 | 0.00 | 0.00 | 48 | 1004.5 |
| 20260504192617 | 82 | 283 | 2.0 | 6.0 | 0.00 | 0.00 | 0.00 | 48 | 1004.5 |
| 20260504192115 | 82 | 352 | 1.0 | 2.0 | 0.00 | 0.00 | 0.00 | 47 | 1004.4 |
| 20260504191613 | 81 | 142 | 2.0 | 4.0 | 0.00 | 0.00 | 0.00 | 50 | 1004.4 |
| 20260504191109 | 82 | 214 | 2.0 | 8.0 | 0.00 | 0.00 | 0.00 | 51 | 1004.5 |
| 20260504190605 | 82 | 239 | 5.0 | 7.0 | 0.00 | 0.00 | 0.00 | 46 | 1004.6 |
| 20260504185559 | 81 | 334 | 1.0 | 8.0 | 0.00 | 0.00 | 0.00 | 48 | 1004.6 |
| 20260504185055 | 80 | 295 | 2.0 | 4.0 | 0.00 | 0.00 | 0.00 | 47 | 1004.6 |
| 20260504184551 | 80 | 332 | 2.0 | 9.0 | 0.00 | 0.00 | 0.00 | 48 | 1004.7 |
| 20260504184046 | 81 | 157 | 2.0 | 4.0 | 0.00 | 0.00 | 0.00 | 47 | 1004.7 |
| 20260504183544 | 80 | 55 | 1.0 | 4.0 | 0.00 | 0.00 | 0.00 | 51 | 1004.7 |
| 20260504183042 | 80 | 309 | 2.0 | 3.0 | 0.00 | 0.00 | 0.00 | 51 | 1004.7 |
| 20260504182538 | 80 | 305 | 1.0 | 4.0 | 0.00 | 0.00 | 0.00 | 51 | 1004.6 |
| 20260504182036 | 80 | 290 | 1.0 | 7.0 | 0.00 | 0.00 | 0.00 | 53 | 1005.1 |
| 20260504181532 | 79 | 218 | 4.0 | 7.0 | 0.00 | 0.00 | 0.00 | 48 | 1005.1 |
| 20260504181031 | 79 | 170 | 3.0 | 7.0 | 0.00 | 0.00 | 0.00 | 49 | 1005.0 |
| 20260504180529 | 78 | 205 | 5.0 | 13.0 | 0.00 | 0.00 | 0.00 | 48 | 1005.0 |
| 20260504180028 | 78 | 278 | 3.0 | 4.0 | 0.00 | 0.00 | 0.00 | 49 | 1005.2 |
| 20260504175525 | 78 | 205 | 5.0 | 8.0 | 0.00 | 0.00 | 0.00 | 49 | 1005.3 |
| 20260504175022 | 78 | 221 | 3.0 | 7.0 | 0.00 | 0.00 | 0.00 | 48 | 1005.1 |
| 20260504174519 | 78 | 241 | 2.0 | 4.0 | 0.00 | 0.00 | 0.00 | 50 | 1005.2 |
| 20260504174016 | 79 | 357 | 2.0 | 4.0 | 0.00 | 0.00 | 0.00 | 48 | 1005.0 |
| 20260504173513 | 77 | 327 | 1.0 | 4.0 | 0.00 | 0.00 | 0.00 | 54 | 1005.1 |
| 20260504173011 | 78 | 292 | 2.0 | 7.0 | 0.00 | 0.00 | 0.00 | 50 | 1005.3 |
| 20260504172506 | 77 | 22 | 2.0 | 11.0 | 0.00 | 0.00 | 0.00 | 54 | 1005.4 |
| 20260504172003 | 78 | 30 | 1.0 | 7.0 | 0.00 | 0.00 | 0.00 | 53 | 1005.4 |
| 20260504171500 | 77 | 259 | 2.0 | 7.0 | 0.00 | 0.00 | 0.00 | 50 | 1005.5 |
| 20260504170957 | 77 | 240 | 4.0 | 7.0 | 0.00 | 0.00 | 0.00 | 49 | 1005.4 |
| 20260504170453 | 78 | 249 | 3.0 | 4.0 | 0.00 | 0.00 | 0.00 | 49 | 1005.5 |
| 20260504160413 | 76 | 207 | 6.0 | 7.0 | 0.00 | 0.00 | 0.00 | 49 | 1005.5 |
| 20260504150837 | 72 | 232 | 5.0 | 7.0 | 0.00 | 0.00 | 0.00 | 53 | 1005.6 |
| 20260504150333 | 72 | 277 | 6.0 | 8.0 | 0.00 | 0.00 | 0.00 | 52 | 1005.6 |
| 20260504141303 | 69 | 235 | 2.0 | 7.0 | 0.00 | 0.00 | 0.00 | 57 | 1005.4 |
| 20260504140800 | 68 | 316 | 1.0 | 2.0 | 0.00 | 0.00 | 0.00 | 56 | 1005.5 |
| 20260504140256 | 69 | 267 | 2.0 | 7.0 | 0.00 | 0.00 | 0.00 | 56 | 1005.5 |
| 20260504130724 | 67 | 326 | 2.0 | 8.0 | 0.00 | 0.00 | 0.00 | 56 | 1005.4 |
| 20260504130220 | 66 | 303 | 2.0 | 3.0 | 0.00 | 0.00 | 0.00 | 57 | 1005.6 |
| 20260504120144 | 63 | 265 | 4.0 | 6.0 | 0.00 | 0.00 | 0.00 | 59 | 1005.6 |